User: anonymous   Login
Location: Lone Wolf Observatory
(41.0360°N, 89.2260°W)
Time: 00:23:43
(UTC-05:00)
Language:

Cosmos 1378 Rocket - Orbit

View from above orbital plane
View from above orbital plane
View from above satellite
View from above satellite

Ground track
Ground track

The orbit data is extracted from the following two-line orbital elements,

1 13272U 82059B   17083.85321934 +.00000113 +00000-0 +10477-4 0  9991
2 13272 082.5117 218.4019 0019524 040.1121 320.1531 14.84582796858297
Epoch (UTC): 24 March 2017 20:28:38
Eccentricity: 0.0019524
inclination: 82.5117°
perigee height: 601 km
apogee height: 628 km
right ascension of ascending node: 218.4019°
argument of perigee: 40.1121°
revolutions per day: 14.84582796
mean anomaly at epoch: 320.1531°
orbit number at epoch: 85829

The dashed part of the orbit path shows where the satellite is in the earth's shadow,  

DLR